{"data":{"norad_id":51727,"epoch":"2026-09-19T22:22:14.075040Z","epoch_age_seconds":97527,"freshness":"FRESH","line1":"1 51727U 22016P   26262.93210735 -.00002058  00000+0 -49786-4 0  9995","line2":"2 51727  53.1594 166.0210 0001457  91.1955 268.9215 15.34404820252894","mean_motion":15.3440482,"eccentricity":0.0001457,"inclination_deg":53.1594,"raan_deg":166.021,"arg_perigee_deg":91.1955,"mean_anomaly_deg":268.9215,"bstar":-4.9786e-5,"rev_number":25289,"period_min":93.847463278954,"perigee_km":461.69220585314,"apogee_km":463.68562252454,"semimajor_km":6840.8259141888,"source":"CELESTRAK","updated_at":"2026-09-20T09:00:39.928703Z"}}